Temperature
15 15 15 15 14 14 14 14 14 14 13 13 13 13 13 13 13 13 13 13 12 12 12 12 12 12 12 12 12 12 12 12 11 11 11 11 11 11 11 11 11 11 11
15 15 15 15 14 14 14 14 14 13 13 13 13 13 13 13 13 13 12 12 12 12 12 12 12 12 12 12 12 12 12 11 11 11 11 11 11 11 11 11 11 11 10
15 15 14 14 14 14 14 14 14 13 13 13 13 13 13 13 12 12 12 12 12 12 12 12 12 12 12 12 12 12 11 11 11 11 11 11 11 11 10 10 10 10 10
15 14 14 14 14 14 14 14 13 13 13 13 13 13 13 12 12 12 12 12 12 12 12 12 12 11 12 11 11 11 11 11 11 11 11 10 10 10 10 10 10 10 10
14 14 14 14 14 14 13 13 13 13 13 13 12 12 12 12 12 12 12 12 12 12 12 11 11 11 11 11 11 11 11 11 11 11 10 10 10 10 10 10 10 10 10
14 14 14 14 13 13 13 13 13 13 12 12 12 12 12 12 11 11 11 11 11 11 11 11 11 11 11 11 11 11 11 10 10 10 10 10 10 10 10 10 9 9 9
14 14 13 13 13 13 13 13 12 12 12 12 12 12 11 11 11 11 11 11 11 11 11 11 11 11 11 10 10 10 10 10 10 10 10 10 10 10 9 9 9 9 9
13 13 13 13 13 13 12 12 12 12 12 12 11 11 11 11 11 11 10 10 10 10 10 10 10 10 10 10 10 10 10 10 10 9 9 9 9 9 9 9 9 9 9
13 13 13 13 13 12 12 12 12 12 11 11 11 11 11 11 10 10 10 10 10 10 10 10 10 10 10 10 9 9 9 9 9 9 9 9 9 9 9 9 9 9 8
13 13 12 12 12 12 12 12 11 11 11 11 10 10 10 10 10 10 10 10 10 10 9 9 9 9 9 9 9 9 9 9 9 9 9 9 9 9 9 9 8 8 8
12 12 12 12 12 12 11 11 11 11 11 10 10 10 10 10 10 10 9 9 9 9 9 9 9 9 9 9 9 9 9 9 8 8 8 8 8 8 8 8 8 8 8
12 12 12 11 11 11 11 11 10 10 10 10 10 10 9 9 9 9 9 9 9 9 9 9 9 9 9 9 9 8 8 8 8 8 8 8 8 8 8 8 8 8 7
12 11 11 11 11 10 10 10 10 10 10 9 9 9 9 9 9 9 9 9 9 9 9 8 8 8 8 8 8 8 8 8 8 8 8 8 8 7 7 7 7 7 7
11 11 11 10 10 10 10 10 10 9 9 9 9 9 9 9 8 8 8 8 8 8 8 8 8 8 8 8 7 7 7 7 7 7 7 7 7 7 7 7 7 7 7
11 10 10 10 10 10 9 9 9 9 9 9 9 8 8 8 8 8 8 8 8 8 8 8 8 7 7 7 7 7 7 7 7 7 7 7 7 6 7 6 6 7 7
10 10 10 10 9 9 9 9 9 8 8 8 8 8 8 8 8 8 7 7 7 7 7 7 7 7 7 7 7 7 7 7 7 6 6 6 6 6 6 6 6 6 6
10 9 9 9 9 9 9 8 8 8 8 8 8 7 7 7 7 7 7 7 7 7 6 6 6 6 6 6 6 6 6 6 6 6 6 6 6 6 6 6 6 5 5
9 9 9 9 8 8 8 8 8 8 8 8 7 7 7 7 7 7 6 6 6 6 6 6 6 6 6 6 6 6 6 6 6 6 6 5 5 5 5 5 5 5 5
8 8 8 8 8 8 8 7 7 7 7 7 7 7 6 6 6 6 6 6 6 6 6 6 6 5 5 5 5 5 5 5 5 5 5 5 5 5 5 5 5 4 4
8 8 7 7 7 7 7 7 7 7 6 6 6 6 6 6 6 5 5 5 5 5 5 5 5 5 5 5 5 5 5 5 5 5 5 4 4 4 4 4 4 4 4
7 7 7 7 7 6 6 6 6 6 6 6 6 6 6 5 5 5 5 5 5 5 5 5 5 5 5 5 5 5 4 4 4 4 4 4 4 4 4 4 3 3 3
7 7 6 6 6 6 6 6 6 6 5 5 5 5 5 5 5 5 5 5 5 5 4 4 5 4 4 4 4 4 4 4 4 4 4 3 3 3 3 3 3 3 3
6 6 6 6 6 6 5 5 5 5 5 5 5 4 4 4 4 4 4 4 4 4 4 4 4 4 4 4 4 4 4 4 3 3 3 3 3 3 3 3 2 2 2
5 5 5 5 5 5 5 5 5 5 4 4 4 4 4 4 4 4 3 3 4 4 4 3 3 3 3 3 3 3 3 3 3 3 3 3 3 2 2 2 2 2 2
5 5 5 5 5 4 4 4 4 4 4 4 4 3 3 3 3 3 3 3 3 3 3 3 3 3 3 3 3 3 3 3 2 2 2 2 2 2 2 1 1 1 1
4 4 4 4 4 4 4 4 4 3 3 3 3 3 3 3 2 2 2 2 2 3 2 2 2 2 2 2 2 2 2 2 2 2 2 2 1 1 1 1 1 1 1
Wind_Speed
7 6 6 5 5 5 4 4 3 3 3 3 2 2 3 2 2 2 2 2 2 1 1 1 1 1 1 1 2 2 2 3 3 2 1 0 1 1 1 1 1 1 1
6 6 6 6 5 5 4 4 4 3 3 3 3 3 3 3 3 3 2 1 2 2 1 1 1 1 1 1 2 2 2 3 4 3 1 1 1 2 1 1 1 1 0
6 6 6 6 6 5 5 4 4 4 3 3 3 3 3 3 3 2 2 2 2 2 2 2 2 2 1 1 2 2 2 2 3 3 2 1 1 1 1 0 1 1 1
5 6 6 6 6 6 5 4 4 4 4 3 3 4 4 4 3 3 2 2 1 1 2 2 3 3 4 3 2 2 2 2 3 3 2 1 1 0 1 1 0 1 1
6 6 6 6 5 5 4 4 4 3 4 4 3 3 2 3 3 3 3 3 2 1 1 2 2 3 4 3 3 3 3 2 2 3 2 1 1 1 2 2 2 0 1
7 7 6 5 5 5 4 4 4 3 3 3 4 4 3 3 3 4 4 3 2 2 2 1 1 1 3 4 4 4 5 4 4 3 3 3 3 3 2 2 2 1 2
6 5 5 5 4 4 4 4 4 4 4 3 3 4 4 4 4 4 4 3 3 3 2 2 2 1 1 1 2 3 4 5 5 5 4 5 4 5 4 3 3 3 3
5 5 5 5 5 4 4 4 4 3 4 4 4 4 3 3 3 4 4 3 2 3 3 3 3 2 1 2 2 2 2 2 4 4 5 5 5 5 5 5 5 3 1
5 5 5 6 5 4 4 5 4 3 3 3 3 3 3 3 4 4 4 2 2 2 3 3 3 3 3 3 3 2 1 1 1 3 3 3 4 5 5 3 3 2 1
5 5 5 5 6 6 6 5 3 3 3 3 2 3 3 3 4 5 5 3 2 2 2 2 4 4 4 4 3 3 3 2 1 0 0 0 1 3 5 5 5 3 2
4 4 4 4 5 6 5 4 3 3 3 2 2 2 3 3 4 4 4 3 3 3 2 2 3 4 4 5 4 4 4 3 2 2 1 0 0 0 1 3 3 4 4
3 4 4 4 4 4 4 3 4 4 3 3 2 2 2 3 3 4 4 4 4 3 4 3 3 4 4 4 4 4 4 2 1 1 1 1 2 2 2 2 3 3 3
3 3 3 3 3 4 5 4 3 3 4 4 3 3 3 2 3 4 4 4 4 3 3 4 4 3 3 3 4 4 3 2 2 2 3 3 3 3 2 1 1 1 0
3 3 3 3 3 3 4 4 4 4 5 5 5 5 4 3 3 3 3 3 3 3 2 3 3 3 2 2 3 3 3 3 4 3 3 2 1 1 2 2 2 2 1
2 3 3 3 3 3 3 4 5 6 7 7 6 6 5 5 6 6 4 4 4 4 2 1 1 1 1 1 1 2 2 2 3 2 2 2 2 2 2 2 2 2 2
2 2 2 3 3 3 3 2 4 5 7 8 8 7 6 8 7 7 7 6 6 5 2 2 3 3 4 3 3 2 2 3 3 3 3 3 3 3 2 2 1 2 3
3 3 3 3 3 3 3 4 3 3 4 5 7 8 8 8 7 6 6 6 6 6 3 4 4 4 4 4 4 3 3 3 2 3 3 3 3 3 2 2 2 2 3
4 4 3 3 4 4 4 4 4 4 4 3 4 6 7 7 6 6 5 3 3 3 4 4 5 4 4 4 4 4 3 2 2 3 3 3 3 3 3 3 3 3 3
4 3 3 3 3 4 4 4 4 4 4 3 3 3 5 5 5 5 4 3 4 4 4 4 4 4 4 4 4 4 4 4 3 3 3 3 3 3 3 3 3 4 3
3 5 4 3 3 3 3 3 4 4 4 4 4 4 3 3 3 4 3 3 4 4 4 4 4 4 4 4 4 3 3 3 3 3 3 3 3 3 3 3 3 3 3
3 3 4 3 3 3 3 4 4 4 4 4 4 4 5 4 5 5 4 4 4 5 4 4 4 4 4 3 3 4 4 3 3 3 3 3 3 3 3 3 3 3 3
2 3 3 3 3 3 3 4 4 4 4 4 3 3 4 3 3 4 4 4 4 4 4 4 4 4 4 4 4 4 4 4 3 3 3 3 3 3 2 3 3 3 3
2 3 3 3 3 4 4 3 4 4 4 4 3 3 3 3 3 3 3 3 3 3 3 3 4 3 4 4 5 5 5 4 4 4 4 3 3 3 3 3 4 4 4
3 3 3 3 3 3 3 4 4 4 4 4 3 3 3 3 3 3 3 3 3 3 3 3 4 5 5 5 5 6 6 6 6 6 6 4 4 3 3 3 4 4 4
3 3 3 3 3 3 4 4 4 4 4 3 4 3 3 3 3 2 2 2 3 3 3 3 3 4 6 6 6 6 7 7 7 6 6 5 4 4 4 4 4 4 4
3 3 3 3 3 4 4 4 4 3 3 3 3 3 3 3 3 3 2 3 2 2 2 2 3 4 5 5 6 7 7 7 7 7 6 5 4 4 4 4 4 4 4
Wind_Direction
185 182 173 174 173 165 166 174 175 174 173 176 169 156 157 146 130 127 157 155 155 171 142 150 208 186 172 175 157 149 151 147 173 250 248 251 128 123 108 128 103 93 72
186 178 176 177 169 169 174 179 172 169 172 171 152 147 152 144 136 142 154 151 170 182 197 174 224 204 194 201 174 178 183 177 168 192 234 214 209 191 162 150 117 78 93
175 174 176 175 174 179 184 185 176 169 167 161 150 158 161 159 154 162 163 155 175 197 204 198 216 185 205 222 199 192 192 173 157 169 199 212 219 174 115 69 53 23 36
169 170 178 187 186 187 186 186 182 172 166 168 169 175 174 172 169 173 162 165 171 210 222 213 213 200 205 204 201 193 172 156 154 159 172 185 213 222 141 156 48 349 336
167 170 183 187 182 180 179 179 177 170 172 171 164 168 179 179 185 176 176 177 177 204 238 234 230 211 201 194 188 183 169 171 172 170 184 187 211 187 200 190 190 207 320
171 179 180 173 171 177 184 181 172 170 176 167 168 175 189 207 197 179 170 172 177 192 227 261 260 236 224 204 191 180 171 177 188 185 196 202 219 212 191 185 177 178 255
176 179 174 172 175 184 181 173 179 183 176 180 186 181 191 210 195 185 180 175 179 195 209 227 259 276 253 208 194 188 188 187 180 183 193 211 209 207 183 182 191 194 223
179 176 172 170 177 179 168 175 188 183 185 194 198 194 187 208 191 181 177 171 180 198 199 204 217 246 229 186 165 152 181 216 210 202 205 213 208 198 190 191 193 193 246
184 185 185 179 177 174 179 189 189 179 187 194 191 187 190 217 204 189 172 165 182 212 217 213 211 216 219 190 159 164 184 272 237 206 210 210 205 194 172 146 150 158 222
198 199 196 187 179 183 192 194 189 184 189 179 179 191 199 215 215 202 178 170 187 221 238 241 226 214 207 185 178 178 196 237 238 117 82 266 220 198 186 183 182 184 197
197 189 189 192 189 188 189 187 177 178 166 168 187 213 216 220 226 219 193 184 194 209 223 237 244 226 206 194 190 193 209 207 193 182 183 272 333 302 201 199 191 189 198
181 179 186 191 191 182 173 180 179 173 169 184 197 224 246 246 234 230 214 213 203 201 223 231 235 236 225 209 206 215 209 178 158 165 202 240 246 247 240 210 205 208 210
170 182 186 189 190 181 180 183 183 183 188 203 204 219 236 245 248 245 234 229 220 218 227 229 230 226 224 223 216 213 193 179 180 201 227 239 237 235 223 201 198 165 90
174 191 188 185 197 197 196 192 190 197 203 210 214 223 231 240 243 236 229 229 224 233 239 237 234 231 219 232 237 226 206 198 199 213 225 235 232 228 236 219 209 196 212
187 193 197 196 196 208 213 212 208 215 212 211 216 214 212 229 235 224 217 221 218 219 209 213 190 208 228 261 266 245 224 212 217 216 212 222 230 231 248 237 211 192 201
181 198 198 196 198 207 211 250 251 235 234 228 221 218 225 229 233 231 229 233 229 207 189 208 222 224 225 232 234 238 232 227 224 215 211 214 219 224 234 236 215 199 211
193 206 207 201 202 209 213 216 246 276 261 240 232 229 229 232 234 235 232 231 220 199 206 217 223 225 230 232 230 227 232 235 224 219 221 222 222 223 220 220 214 210 218
209 217 216 213 213 214 218 223 222 224 243 262 255 241 233 228 230 232 224 205 215 213 216 222 225 226 232 234 230 229 232 231 221 221 226 226 221 219 217 221 218 214 220
214 222 224 222 219 221 222 222 223 227 231 244 258 253 236 231 233 229 208 208 216 226 226 230 227 222 227 228 226 224 220 222 221 217 221 222 220 216 223 227 226 228 226
229 238 232 219 220 223 223 223 226 227 228 231 234 235 223 209 220 229 231 231 231 233 227 226 229 226 226 226 219 217 220 222 218 218 222 222 220 217 223 225 223 224 227
231 239 242 231 223 222 223 227 226 224 227 231 239 238 222 214 220 226 231 230 232 234 231 225 225 226 226 227 217 212 211 219 219 218 219 221 219 222 229 227 227 228 234
230 235 233 228 226 226 232 231 227 223 225 230 239 240 231 222 226 232 232 237 237 236 229 222 222 221 219 218 216 209 209 215 218 215 216 219 220 226 230 230 232 237 239
228 234 238 238 232 239 240 233 228 226 225 224 221 221 221 221 226 231 238 243 240 240 230 221 223 226 227 218 211 206 208 214 214 207 209 217 224 228 227 232 236 238 241
225 228 232 237 235 231 233 233 232 230 227 224 220 217 219 223 228 235 243 247 245 244 234 226 221 223 223 220 214 211 210 211 207 203 204 212 220 229 229 236 240 240 244
225 229 232 234 235 231 231 232 233 232 229 226 222 217 216 220 223 234 248 245 237 240 243 232 227 223 222 224 221 220 219 214 209 206 203 203 216 224 226 232 240 245 250
228 227 230 233 237 235 232 234 233 227 223 227 224 217 217 220 224 229 234 238 238 237 242 241 241 236 233 229 232 231 225 221 218 216 209 203 214 227 228 231 238 240 243
Height
1514 1515 1517 1518 1519 1520 1521 1521 1522 1522 1523 1523 1523 1524 1524 1524 1525 1525 1525 1525 1525 1525 1525 1525 1525 1526 1525 1525 1525 1526 1526 1526 1526 1527 1527 1527 1527 1528 1528 1528 1527 1527 1526
1512 1513 1514 1515 1516 1517 1518 1519 1519 1520 1521 1521 1521 1522 1522 1522 1523 1523 1523 1523 1523 1524 1523 1523 1523 1523 1523 1523 1524 1524 1524 1524 1524 1524 1525 1526 1526 1526 1526 1526 1526 1526 1525
1509 1510 1511 1512 1513 1514 1516 1516 1517 1517 1518 1519 1519 1519 1520 1520 1520 1520 1520 1520 1521 1521 1521 1521 1521 1521 1521 1521 1521 1521 1522 1522 1522 1522 1523 1524 1524 1524 1524 1524 1524 1524 1524
1505 1507 1508 1509 1510 1512 1513 1513 1514 1515 1515 1516 1516 1517 1517 1517 1518 1518 1518 1518 1518 1518 1519 1519 1519 1519 1519 1519 1519 1519 1519 1519 1520 1520 1520 1521 1521 1522 1522 1522 1522 1522 1522
1502 1503 1504 1506 1507 1509 1510 1510 1511 1512 1513 1513 1513 1514 1514 1514 1514 1515 1515 1515 1515 1515 1516 1516 1516 1516 1516 1516 1516 1516 1516 1517 1517 1517 1517 1518 1518 1519 1519 1519 1519 1519 1520
1499 1500 1501 1503 1504 1505 1506 1507 1508 1509 1510 1510 1510 1511 1511 1511 1511 1512 1512 1512 1512 1512 1512 1512 1513 1513 1513 1513 1513 1514 1514 1514 1514 1514 1514 1515 1515 1516 1516 1516 1517 1517 1517
1495 1497 1498 1500 1501 1502 1503 1504 1504 1505 1506 1507 1507 1507 1507 1507 1508 1509 1509 1509 1509 1509 1509 1509 1509 1509 1509 1510 1510 1510 1511 1511 1512 1512 1511 1511 1512 1512 1513 1513 1513 1514 1514
1492 1493 1495 1496 1497 1498 1499 1500 1501 1502 1503 1503 1503 1504 1504 1504 1505 1505 1506 1506 1506 1506 1506 1506 1506 1506 1506 1506 1506 1506 1507 1507 1508 1508 1509 1509 1509 1510 1510 1510 1510 1511 1511
1489 1490 1491 1492 1493 1495 1495 1496 1497 1498 1499 1499 1500 1500 1500 1501 1502 1502 1502 1502 1502 1502 1503 1503 1503 1502 1502 1503 1503 1503 1503 1504 1504 1505 1505 1505 1506 1506 1506 1507 1507 1507 1507
1486 1487 1488 1489 1490 1491 1492 1492 1493 1494 1495 1495 1496 1496 1497 1497 1498 1498 1499 1498 1498 1498 1499 1499 1499 1499 1499 1499 1499 1500 1499 1500 1500 1500 1501 1501 1502 1502 1502 1503 1503 1503 1503
1484 1484 1485 1486 1487 1487 1488 1489 1489 1490 1491 1492 1492 1493 1493 1493 1494 1494 1495 1495 1494 1494 1494 1495 1495 1495 1495 1496 1496 1496 1496 1496 1496 1497 1497 1497 1497 1498 1498 1499 1499 1500 1500
1481 1481 1482 1482 1483 1484 1485 1485 1486 1486 1487 1488 1488 1488 1489 1489 1490 1490 1490 1491 1491 1491 1491 1491 1491 1492 1492 1492 1492 1492 1492 1493 1493 1493 1493 1493 1493 1493 1494 1494 1495 1495 1495
1478 1478 1478 1479 1480 1481 1481 1481 1482 1483 1483 1484 1484 1484 1485 1485 1485 1486 1486 1487 1487 1487 1487 1488 1488 1488 1488 1488 1488 1488 1488 1488 1488 1488 1488 1488 1489 1489 1490 1490 1490 1490 1490
1475 1475 1475 1476 1476 1477 1478 1478 1478 1479 1479 1480 1480 1480 1480 1481 1481 1481 1482 1483 1483 1483 1483 1484 1484 1484 1484 1484 1484 1484 1484 1484 1484 1484 1484 1485 1485 1485 1485 1485 1485 1485 1486
1472 1472 1472 1472 1473 1473 1474 1474 1474 1475 1475 1476 1476 1476 1476 1476 1477 1478 1478 1478 1478 1479 1479 1479 1479 1479 1479 1479 1479 1479 1480 1480 1480 1480 1481 1481 1481 1481 1481 1481 1481 1481 1481
1469 1469 1469 1469 1469 1470 1470 1470 1470 1471 1472 1472 1473 1473 1473 1473 1473 1474 1474 1474 1475 1475 1475 1474 1474 1474 1474 1475 1475 1475 1475 1475 1476 1476 1477 1477 1477 1477 1477 1477 1477 1477 1477
1466 1466 1465 1465 1466 1466 1466 1466 1465 1466 1467 1467 1468 1468 1469 1469 1469 1469 1469 1470 1470 1470 1470 1469 1470 1470 1470 1470 1470 1471 1471 1471 1472 1472 1472 1473 1473 1473 1473 1473 1473 1473 1472
1462 1462 1462 1462 1462 1462 1462 1461 1461 1461 1461 1462 1463 1463 1464 1464 1465 1465 1465 1465 1465 1465 1465 1465 1465 1465 1466 1466 1466 1466 1467 1467 1468 1468 1468 1468 1469 1469 1469 1469 1469 1469 1469
1458 1458 1458 1458 1457 1457 1457 1457 1457 1457 1457 1457 1457 1458 1459 1459 1460 1460 1460 1460 1460 1460 1460 1460 1460 1461 1461 1461 1462 1462 1462 1462 1463 1463 1463 1464 1464 1464 1464 1464 1464 1464 1464
1454 1454 1454 1453 1453 1453 1452 1452 1452 1452 1452 1452 1452 1452 1453 1453 1453 1454 1455 1455 1455 1455 1455 1456 1456 1456 1456 1456 1457 1457 1457 1458 1458 1458 1459 1459 1459 1459 1459 1460 1460 1460 1460
1450 1449 1449 1449 1448 1448 1448 1447 1447 1447 1447 1447 1447 1447 1448 1448 1448 1449 1449 1450 1450 1450 1451 1451 1451 1451 1451 1452 1452 1452 1452 1453 1453 1453 1454 1454 1454 1454 1454 1455 1455 1455 1455
1445 1445 1444 1444 1443 1443 1443 1443 1443 1442 1442 1442 1442 1442 1442 1443 1443 1444 1444 1445 1445 1446 1446 1446 1446 1446 1446 1447 1447 1447 1447 1447 1448 1448 1449 1449 1449 1449 1449 1450 1450 1450 1450
1441 1440 1439 1439 1439 1438 1438 1438 1438 1437 1437 1437 1437 1437 1437 1437 1438 1438 1439 1439 1440 1441 1441 1441 1441 1441 1442 1442 1442 1442 1442 1442 1443 1443 1444 1444 1444 1444 1444 1444 1445 1445 1445
1437 1436 1435 1434 1434 1433 1433 1433 1433 1433 1432 1432 1432 1432 1432 1433 1433 1434 1434 1434 1435 1435 1436 1436 1436 1436 1436 1436 1436 1437 1437 1438 1438 1438 1439 1439 1439 1439 1440 1440 1440 1440 1440
1432 1431 1430 1430 1429 1429 1429 1428 1428 1427 1427 1427 1427 1427 1428 1428 1428 1429 1429 1430 1430 1430 1430 1431 1430 1431 1431 1431 1431 1431 1432 1432 1433 1433 1433 1434 1434 1434 1434 1435 1435 1435 1435
1428 1427 1426 1426 1425 1425 1424 1424 1423 1423 1423 1422 1422 1423 1423 1423 1424 1424 1425 1425 1425 1425 1425 1425 1425 1426 1426 1426 1426 1426 1426 1427 1427 1428 1428 1429 1429 1429 1429 1430 1430 1430 1430